• In Deutschland
  • Länderverzeichnis
  • Für 7 Tage
  • Wassertemperatur
  • Satellitenkarten
  • Wetterkarte
  • Widgets
  • user-avatar
    Anmelden

    Stündliche Wetter Bad Königshofen im Grabfeld

    Heute, 19 Oktober, Donnerstag

    Zeit Temperatur Niederschläge Wind Luftdruck Luftfeuchtigkeit
    00:00 +11°C° 0 mm 1 m/S 736 mmHg 83%
    01:00 +11°C° 0 mm 1 m/S 736 mmHg 84%
    02:00 +11°C° 0 mm 1 m/S 736 mmHg 84%
    03:00 +11°C° 0 mm 1 m/S 736 mmHg 84%
    04:00 +10°C° 0 mm 1 m/S 736 mmHg 84%
    05:00 +10°C° 0 mm 1 m/S 736 mmHg 85%
    06:00 +10°C° 0 mm 1 m/S 736 mmHg 85%
    07:00 +9°C° 0 mm 1 m/S 736 mmHg 83%
    08:00 +11°C° 0 mm 1 m/S 736 mmHg 77%
    09:00 +13°C° 0 mm 2 m/S 736 mmHg 71%
    10:00 +15°C° 0 mm 2 m/S 736 mmHg 65%
    11:00 +16°C° 0 mm 2 m/S 736 mmHg 62%
    12:00 +18°C° 0 mm 2 m/S 736 mmHg 59%
    13:00 +18°C° 0 mm 2 m/S 736 mmHg 58%
    14:00 +18°C° 0 mm 2 m/S 736 mmHg 62%
    15:00 +19°C° 0 mm 2 m/S 735 mmHg 65%
    16:00 +19°C° 0 mm 2 m/S 735 mmHg 68%
    17:00 +17°C° 0 mm 2 m/S 735 mmHg 75%
    18:00 +15°C° 0 mm 2 m/S 735 mmHg 81%
    19:00 +14°C° 0 mm 2 m/S 735 mmHg 87%
    20:00 +13°C° 0 mm 2 m/S 735 mmHg 88%
    21:00 +13°C° 0 mm 2 m/S 735 mmHg 89%
    22:00 +13°C° 0 mm 2 m/S 735 mmHg 89%
    23:00 +12°C° 0 mm 2 m/S 735 mmHg 89%

    Morgen, 20 Oktober, Freitag

    Zeit Temperatur Niederschläge Wind Luftdruck Luftfeuchtigkeit
    00:00 +12°C° 0 mm 1 m/S 735 mmHg 89%
    01:00 +12°C° 0 mm 1 m/S 735 mmHg 89%
    02:00 +12°C° 0 mm 1 m/S 735 mmHg 87%
    03:00 +12°C° 0 mm 1 m/S 735 mmHg 86%
    04:00 +12°C° 0 mm 1 m/S 735 mmHg 84%
    05:00 +10°C° 0 mm 2 m/S 735 mmHg 84%
    06:00 +10°C° 0 mm 2 m/S 735 mmHg 83%
    07:00 +10°C° 0 mm 2 m/S 735 mmHg 82%
    08:00 +12°C° 0 mm 2 m/S 736 mmHg 77%
    09:00 +14°C° 0 mm 2 m/S 736 mmHg 72%
    10:00 +15°C° 0 mm 2 m/S 736 mmHg 67%
    11:00 +16°C° 0,2 mm 3 m/S 736 mmHg 69%
    12:00 +16°C° 0,2 mm 3 m/S 737 mmHg 71%
    13:00 +16°C° 0,2 mm 3 m/S 737 mmHg 73%
    14:00 +16°C° 0,2 mm 3 m/S 737 mmHg 77%
    15:00 +14°C° 0,2 mm 3 m/S 737 mmHg 81%
    16:00 +14°C° 0,2 mm 3 m/S 737 mmHg 85%
    17:00 +13°C° 0 mm 3 m/S 737 mmHg 88%
    18:00 +13°C° 0 mm 3 m/S 737 mmHg 90%
    19:00 +12°C° 0 mm 3 m/S 737 mmHg 93%
    20:00 +12°C° 0,1 mm 3 m/S 737 mmHg 94%
    21:00 +12°C° 0,1 mm 2 m/S 738 mmHg 94%
    22:00 +12°C° 0,1 mm 2 m/S 738 mmHg 95%
    23:00 +10°C° 0 mm 2 m/S 738 mmHg 96%

    übermorgen, 21 Oktober, Samstag

    Zeit Temperatur Niederschläge Wind Luftdruck Luftfeuchtigkeit
    00:00 +10°C° 0 mm 2 m/S 738 mmHg 96%
    01:00 +10°C° 0 mm 1 m/S 738 mmHg 96%
    02:00 +11°C° 0 mm 1 m/S 738 mmHg 96%
    03:00 +10°C° 0 mm 2 m/S 737 mmHg 96%
    04:00 +10°C° 0 mm 2 m/S 737 mmHg 96%
    05:00 +12°C° 0 mm 2 m/S 737 mmHg 95%
    06:00 +12°C° 0 mm 2 m/S 737 mmHg 95%
    07:00 +13°C° 0 mm 2 m/S 737 mmHg 95%
    08:00 +13°C° 0 mm 3 m/S 737 mmHg 90%
    09:00 +14°C° 0 mm 3 m/S 737 mmHg 86%
    10:00 +15°C° 0 mm 4 m/S 736 mmHg 82%
    11:00 +17°C° 0 mm 4 m/S 736 mmHg 77%
    12:00 +18°C° 0 mm 4 m/S 736 mmHg 72%
    13:00 +19°C° 0 mm 5 m/S 736 mmHg 68%
    14:00 +18°C° 0 mm 4 m/S 736 mmHg 71%
    15:00 +18°C° 0 mm 3 m/S 736 mmHg 74%
    16:00 +17°C° 0 mm 3 m/S 735 mmHg 78%
    17:00 +17°C° 0,9 mm 3 m/S 736 mmHg 83%
    18:00 +16°C° 0,9 mm 3 m/S 736 mmHg 88%
    19:00 +14°C° 0,9 mm 3 m/S 736 mmHg 93%
    20:00 +13°C° 0,5 mm 4 m/S 736 mmHg 92%
    21:00 +12°C° 0,5 mm 4 m/S 737 mmHg 92%
    22:00 +12°C° 0,5 mm 4 m/S 737 mmHg 92%
    23:00 +11°C° 0,1 mm 4 m/S 737 mmHg 92%

    22 Oktober, Sonntag

    Zeit Temperatur Niederschläge Wind Luftdruck Luftfeuchtigkeit
    00:00 +11°C° 0,1 mm 4 m/S 738 mmHg 93%
    01:00 +10°C° 0,1 mm 4 m/S 738 mmHg 94%
    02:00 +10°C° 0 mm 4 m/S 738 mmHg 94%
    03:00 +8°C° 0 mm 4 m/S 738 mmHg 94%
    04:00 +8°C° 0 mm 4 m/S 737 mmHg 94%
    05:00 +8°C° 0 mm 4 m/S 737 mmHg 94%
    06:00 +8°C° 0 mm 3 m/S 737 mmHg 94%
    07:00 +8°C° 0 mm 3 m/S 737 mmHg 94%
    08:00 +7°C° 0 mm 4 m/S 737 mmHg 91%
    09:00 +8°C° 0 mm 4 m/S 737 mmHg 87%
    10:00 +8°C° 0 mm 5 m/S 737 mmHg 84%
    11:00 +8°C° 0,1 mm 4 m/S 737 mmHg 83%
    12:00 +8°C° 0,1 mm 4 m/S 737 mmHg 82%
    13:00 +8°C° 0,1 mm 4 m/S 737 mmHg 81%
    14:00 +8°C° 0,2 mm 4 m/S 737 mmHg 81%
    15:00 +8°C° 0,2 mm 4 m/S 737 mmHg 80%
    16:00 +8°C° 0,2 mm 4 m/S 737 mmHg 79%
    17:00 +8°C° 0 mm 3 m/S 737 mmHg 82%
    18:00 +8°C° 0 mm 3 m/S 737 mmHg 86%
    19:00 +7°C° 0 mm 2 m/S 737 mmHg 89%
    20:00 +6°C° 0 mm 2 m/S 737 mmHg 90%
    21:00 +5°C° 0 mm 3 m/S 737 mmHg 91%
    22:00 +5°C° 0 mm 3 m/S 737 mmHg 91%
    23:00 +5°C° 0 mm 3 m/S 737 mmHg 92%

    23 Oktober, Montag

    Zeit Temperatur Niederschläge Wind Luftdruck Luftfeuchtigkeit
    00:00 +5°C° 0 mm 3 m/S 737 mmHg 93%
    01:00 +5°C° 0 mm 3 m/S 737 mmHg 94%
    02:00 +5°C° 0 mm 3 m/S 737 mmHg 94%
    03:00 +5°C° 0 mm 2 m/S 737 mmHg 95%
    04:00 +5°C° 0 mm 2 m/S 737 mmHg 96%
    05:00 +6°C° 0,1 mm 2 m/S 737 mmHg 95%
    06:00 +6°C° 0,1 mm 2 m/S 738 mmHg 95%
    07:00 +6°C° 0,1 mm 2 m/S 738 mmHg 95%
    08:00 +7°C° 0,1 mm 2 m/S 738 mmHg 93%
    09:00 +8°C° 0,1 mm 2 m/S 738 mmHg 91%
    10:00 +8°C° 0,1 mm 2 m/S 738 mmHg 89%
    11:00 +9°C° 0,2 mm 2 m/S 739 mmHg 89%
    12:00 +9°C° 0,2 mm 3 m/S 739 mmHg 88%
    13:00 +10°C° 0,2 mm 3 m/S 739 mmHg 88%
    14:00 +10°C° 0,1 mm 3 m/S 739 mmHg 88%
    15:00 +10°C° 0,1 mm 2 m/S 740 mmHg 88%
    16:00 +10°C° 0,1 mm 2 m/S 740 mmHg 87%
    17:00 +9°C° 0 mm 2 m/S 740 mmHg 90%
    18:00 +8°C° 0 mm 2 m/S 741 mmHg 92%
    19:00 +8°C° 0 mm 1 m/S 741 mmHg 95%
    20:00 +8°C° 0 mm 1 m/S 741 mmHg 95%
    21:00 +8°C° 0 mm 1 m/S 741 mmHg 96%
    22:00 +7°C° 0 mm 1 m/S 741 mmHg 96%
    23:00 +7°C° 0 mm 1 m/S 741 mmHg 97%

    24 Oktober, Dienstag

    Zeit Temperatur Niederschläge Wind Luftdruck Luftfeuchtigkeit
    00:00 +7°C° 0 mm 1 m/S 742 mmHg 97%
    01:00 +7°C° 0 mm 1 m/S 742 mmHg 98%
    02:00 +8°C° 0 mm 1 m/S 742 mmHg 98%
    03:00 +8°C° 0 mm 1 m/S 742 mmHg 97%
    04:00 +8°C° 0 mm 1 m/S 742 mmHg 97%
    05:00 +9°C° 0 mm 1 m/S 742 mmHg 97%
    06:00 +9°C° 0 mm 1 m/S 742 mmHg 97%
    07:00 +8°C° 0 mm 2 m/S 742 mmHg 97%
    08:00 +9°C° 0,1 mm 2 m/S 742 mmHg 96%
    09:00 +9°C° 0,1 mm 2 m/S 742 mmHg 95%
    10:00 +10°C° 0,1 mm 2 m/S 742 mmHg 95%
    11:00 +11°C° 0,5 mm 1 m/S 742 mmHg 95%
    12:00 +11°C° 0,5 mm 1 m/S 743 mmHg 95%
    13:00 +11°C° 0,5 mm 1 m/S 743 mmHg 96%
    14:00 +11°C° 0,2 mm 1 m/S 743 mmHg 96%
    15:00 +12°C° 0,2 mm 1 m/S 743 mmHg 95%
    16:00 +12°C° 0,2 mm 1 m/S 743 mmHg 95%
    17:00 +11°C° 0 mm 0 m/S 743 mmHg 96%
    18:00 +11°C° 0 mm 0 m/S 743 mmHg 97%
    19:00 +10°C° 0 mm 0 m/S 744 mmHg 97%
    20:00 +10°C° 0 mm 0 m/S 744 mmHg 97%
    21:00 +10°C° 0 mm 0 m/S 744 mmHg 97%
    22:00 +10°C° 0 mm 0 m/S 745 mmHg 97%
    23:00 +10°C° 0 mm 0 m/S 745 mmHg 97%
    Mehr zeigen